Location: Breitenfeld
(46.8500°N, 15.6333°E)
Time: 22:31:19
(UTC+00:00)

Tiangong - Pass Details

Date: 30 November 2022
Orbit: 383 x 386 km, 41.5° (Epoch: 29 January)

Event Time Altitude Azimuth Distance (km) Brightness Sun altitude
Rises 17:00:34 0° 218° (SW) 2,254 2.6 -18.0°
Reaches altitude 10° 17:03:15 10° 193° (SSW) 1,406 1.0 -18.5°
Enters shadow 17:04:53 15° 162° (SSE) 1,167 0.2 -18.8°
